Regional Weather Roundup
Issued by NWS Bismarck, ND

Home | Current Version | Previous Version | Text Only | Print | Product List | Glossary On
Versions: 1 2 3 4 5 6 7 8 9 10 11 12 13 14 15 16 17 18 19 20 21 22 23 24 25 26 27 28 29 30 31 32 33 34 35 36 37 38 39 40 41 42 43 44 45 46 47 48 49 50
000
ASUS43 KBIS 191110
RWRBIS

NWR BROADCAST TEXT
NATIONAL WEATHER SERVICE BISMARCK ND
600 AM CDT SUN MAY 19 2019

NOTE: "FAIR" INDICATES FEW OR NO CLOUDS BELOW 12,000 FEET WITH NO
SIGNIFICANT WEATHER AND/OR OBSTRUCTIONS TO VISIBILITY.


CITY           SKY/WX    TMP DP  RH WIND       PRES   REMARKS
WILLISTON      MOCLDY    39  28  64 NE10      30.11S
MINOT          CLOUDY    39  29  67 N13       30.08R
MINOT AFB      CLOUDY    38  28  68 N14       30.07R
BISMARCK       CLOUDY    40  35  83 N9        30.01R
DICKINSON      CLOUDY    34  31  88 CALM      30.03R
GARRISON         N/A     39  28  64 N12       30.05R
HETTINGER ARPT CLOUDY    33  31  92 N14       30.03R
JAMESTOWN      CLOUDY    40  34  79 N15       29.93R
CARRINGTON     CLOUDY    41  32  70 NE13      30.00R
HAZEN          CLOUDY    41  32  70 NE9       30.07R
MANDAN         CLOUDY    37  37 100 N13       30.01S
OAKES          CLOUDY    39  39 100 NE21      29.87R FOG
RUGBY          FAIR      39  27  60 NE15      30.05S
STANLEY        FAIR      36  28  75 NE9       30.10R
TIOGA          FAIR      32  30  93 NE6       30.12R
WATFORD CITY   FAIR      36  34  93 N6        30.09S
$$

CITY           SKY/WX    TMP DP  RH WIND       PRES   REMARKS
GRAND FORKS    CLOUDY    44  28  53 NE13      29.98R
GRAND FORKS AF CLOUDY    43  28  56 N9        30.01R
DEVILS LAKE    CLOUDY    40  26  57 NE17      30.02S
FARGO          CLOUDY    42  39  89 NE16      29.88F
CANDO          FAIR      37  25  60 N13       30.07S
CAVALIER       FAIR      39  25  56 N14       30.06S
GRAFTON        FAIR      43  27  52 NE16      30.03F
GWINNER          N/A     39  39 100 NE23      29.85S FOG
LANGDON        FAIR     N/A N/A N/A NE14G21   30.05S
ROLLA          FAIR      34  25  69 N12       30.08S
WALHALLA       FAIR      37  25  60 N12       30.08S
$$

CITY           SKY/WX    TMP DP  RH WIND       PRES   REMARKS
ABERDEEN       CLOUDY    41  38  89 NE17G28   29.84R
MOBRIDGE       LGT RAIN  41  36  82 N20G31    29.90R
BUFFALO          N/A     34  31  88 N12       30.01R
RAPID CITY     CLOUDY    33  32  96 NW18      29.99R
GLASGOW        MOCLDY    36  27  69 E10       30.12R
SIDNEY         MOCLDY    36  30  79 NW7       30.12R
WOLF POINT     CLOUDY    36  29  75 NE5       30.14R
GLENDIVE       CLOUDY    37  31  78 NE12      30.10S
MILES CITY     CLOUDY    34  34 100 W7        30.09S
BAKER          CLOUDY    33  32  96 W9        30.07S
$$

CITY           SKY/WX    TMP DP  RH WIND       PRES   REMARKS
BILLINGS       CLOUDY    36  33  89 NE8       30.06F
GREAT FALLS    MOCLDY    34  31  88 E8        30.01S
REGINA         PTCLDY    27  23  86 N7        30.19S WCI  19
ESTEVAN        CLOUDY    32  28  86 NE9       30.14S
$$




USA.gov is the U.S. government's official web portal to all federal, state and local government web resources and services.